Location: Asheville, NC
(35.6000°N, 82.5500°W)
Time: 17:25:29

NO-84 - Pass Details

Date: 15 March 2018
Orbit: 339 x 558 km, 55.0° (Epoch: 15 March)

Event Time Altitude Azimuth Distance (km) Brightness Sun altitude
Exits shadow 07:03:59 - 305° (NW) 2,020 ? -8.3°
Reaches altitude 10° 07:04:58 10° 301° (WNW) 1,635 ? -8.1°
Maximum altitude 07:08:21 36° 234° (SW) 729 ? -7.5°
Drops below altitude 10° 07:11:29 10° 166° (SSE) 1,504 ? -6.8°
Sets 07:13:34 0° 157° (SSE) 2,322 ? -6.4°
